EA8CHC Sevilla ES current weather conditions

sailwx.info

Wind from 254 at 5 knots gusting 11

Air temperature 13.3° C
Dewpoint 11.2° C

Last reported at 2016-Feb-12 02:42 UTC.
Time now 2016-Feb-12 03:43 UTC

Location: N 37°26' W 006°03'.
View on Google Maps.

See reports from other nearby stations

  
Tides and Currents Weather Stations Pressure Air Temp Water Temp Dewpoint Dewpoint Depression Visibility Wind Speed Wind Dir Waves Ship Positions
date/time (UTC)wind fromknots sea level pressurealtimeterstation pressurevisibilityair tempwater tempwave heightnotes
2016-Feb-12 02:42 254 5 gusting 11 13.3
2016-Feb-12 02:37 262 5 gusting 12 12.8
2016-Feb-12 02:32 296 6 gusting 13 12.8
2016-Feb-12 02:27 202 6 gusting 13 12.8
2016-Feb-12 02:22 269 6 gusting 11 12.8
2016-Feb-12 02:17 248 5 gusting 13 12.8
2016-Feb-12 02:12 245 5 gusting 13 12.8
2016-Feb-12 02:07 227 5 gusting 13 12.8
2016-Feb-12 02:02 254 6 gusting 13 13.3
2016-Feb-12 01:57 217 6 gusting 13 13.3
2016-Feb-12 01:52 264 6 gusting 13 12.8
2016-Feb-12 01:47 270 5 gusting 10 12.8
2016-Feb-12 01:42 246 5 gusting 10 12.8
2016-Feb-12 01:37 239 5 gusting 10 12.8
2016-Feb-12 01:32 230 4 gusting 10 12.8
2016-Feb-12 01:27 288 4 gusting 6 12.8
2016-Feb-12 01:22 221 3 gusting 6 12.8
2016-Feb-12 01:17 219 2 gusting 5 12.8
2016-Feb-12 01:12 229 2 gusting 6 12.8
2016-Feb-12 01:07 205 3 gusting 6 12.8
2016-Feb-12 01:02 182 3 gusting 6 12.8
2016-Feb-12 00:57 161 3 gusting 6 13.3
2016-Feb-12 00:52 167 2 gusting 6 13.3
2016-Feb-12 00:47 176 2 gusting 6 13.3
2016-Feb-12 00:42 180 2 gusting 5 13.3
2016-Feb-12 00:37 210 1 gusting 5 13.3
2016-Feb-12 00:32 210 2 gusting 5 13.3
2016-Feb-12 00:27 211 3 gusting 5 13.3
2016-Feb-12 00:22 195 2 gusting 5 13.3
2016-Feb-12 00:17 192 1 gusting 6 13.9
2016-Feb-12 00:12 192 2 gusting 6 13.9
2016-Feb-12 00:07 223 2 gusting 5 13.9
2016-Feb-12 00:02 231 2 gusting 5 13.9
2016-Feb-11 23:57 263 1 gusting 5 13.9
2016-Feb-11 23:52 252 2 gusting 6 13.9
2016-Feb-11 23:47 252 2 gusting 8 13.9
2016-Feb-11 23:42 230 3 gusting 8 13.9
2016-Feb-11 23:37 244 4 gusting 8 13.9
2016-Feb-11 23:32 229 3 gusting 8 13.9
2016-Feb-11 23:27 223 4 gusting 8 13.9
2016-Feb-11 23:22 249 5 gusting 10 13.9
2016-Feb-11 23:17 240 4 gusting 10 14.4
2016-Feb-11 23:12 263 5 gusting 10 14.4
2016-Feb-11 23:07 243 6 gusting 11 14.4
2016-Feb-11 23:02 271 6 gusting 11 14.4
2016-Feb-11 22:57 257 6 gusting 11 14.4
2016-Feb-11 22:52 263 6 gusting 11 14.4
2016-Feb-11 22:47 242 5 gusting 11 14.4
2016-Feb-11 22:42 267 5 gusting 11 14.4
2016-Feb-11 22:37 271 5 gusting 12 14.4
2016-Feb-11 22:32 265 6 gusting 12 14.4
2016-Feb-11 22:27 259 6 gusting 13 14.4
2016-Feb-11 22:22 261 7 gusting 13 15.0
2016-Feb-11 22:17 268 8 gusting 13 15.0
2016-Feb-11 22:12 258 8 gusting 13 14.4
2016-Feb-11 22:07 254 7 gusting 13 14.4
2016-Feb-11 22:02 262 6 gusting 10 14.4
2016-Feb-11 21:57 256 6 gusting 12 15.0
2016-Feb-11 21:52 288 6 gusting 13 15.0
2016-Feb-11 21:47 268 6 gusting 13 15.0
2016-Feb-11 21:42 254 6 gusting 12 15.0
2016-Feb-11 21:37 252 4 gusting 11 15.0
2016-Feb-11 21:32 255 4 gusting 10 15.0
2016-Feb-11 21:27 288 4 gusting 10 15.0
2016-Feb-11 21:22 259 4 gusting 8 15.0
2016-Feb-11 21:17 258 4 gusting 10 15.0
2016-Feb-11 21:12 223 5 gusting 10 15.0
2016-Feb-11 21:07 260 6 gusting 10 15.6
2016-Feb-11 21:02 257 6 gusting 9 15.6
2016-Feb-11 20:57 258 4 gusting 8 15.6
2016-Feb-11 20:52 273 4 gusting 7 15.6
2016-Feb-11 20:47 256 4 gusting 7 15.6
2016-Feb-11 20:42 245 4 gusting 8 15.6
2016-Feb-11 20:37 264 4 gusting 8 15.6
2016-Feb-11 20:32 246 5 gusting 11 16.1
2016-Feb-11 20:27 290 6 gusting 11 16.1
2016-Feb-11 20:22 267 6 gusting 11 16.1
2016-Feb-11 20:17 254 6 gusting 9 16.1
2016-Feb-11 20:12 247 5 gusting 10 16.1
2016-Feb-11 20:07 253 6 gusting 10 16.1
2016-Feb-11 20:02 262 6 gusting 10 16.1
2016-Feb-11 19:57 238 6 gusting 10 16.1
2016-Feb-11 19:52 242 6 gusting 10 16.1
2016-Feb-11 19:47 273 6 gusting 7 15.6
2016-Feb-11 19:42 259 4 gusting 7 15.6
2016-Feb-11 19:37 295 4 gusting 6 16.1
2016-Feb-11 19:32 263 3 gusting 6 16.1
2016-Feb-11 19:27 257 3 gusting 6 16.1
2016-Feb-11 19:22 255 2 gusting 6 16.1
2016-Feb-11 19:17 227 2 gusting 6 16.1
2016-Feb-11 19:12 260 3 gusting 6 16.7
2016-Feb-11 19:07 264 3 gusting 7 16.7
2016-Feb-11 19:02 235 4 gusting 7 16.7
2016-Feb-11 18:57 259 5 gusting 7 16.7
2016-Feb-11 18:52 254 4 gusting 7 16.7
2016-Feb-11 18:47 253 3 gusting 6 16.7
2016-Feb-11 18:42 234 3 gusting 6 17.2
2016-Feb-11 18:37 270 2 gusting 5 17.2
2016-Feb-11 18:32 252 2 gusting 5 17.2
2016-Feb-11 18:27 237 3 gusting 5 17.2
2016-Feb-11 18:22 246 2 gusting 7 17.2
2016-Feb-11 18:17 240 2 gusting 7 17.8
2016-Feb-11 18:12 250 3 gusting 7 17.8
2016-Feb-11 18:07 231 2 gusting 7 17.8
2016-Feb-11 18:02 236 3 gusting 7 17.8
2016-Feb-11 17:57 213 3 gusting 10 17.8
2016-Feb-11 17:52 217 4 gusting 12 17.8
2016-Feb-11 17:47 296 6 gusting 12 17.8
2016-Feb-11 17:42 284 6 gusting 12 18.3
2016-Feb-11 17:37 254 6 gusting 11 18.3
2016-Feb-11 17:32 277 6 gusting 12 18.3
2016-Feb-11 17:27 261 6 gusting 13 18.3
2016-Feb-11 17:22 280 6 gusting 13 18.3
2016-Feb-11 17:17 250 7 gusting 14 18.3
2016-Feb-11 17:12 263 7 gusting 14 18.3
2016-Feb-11 17:07 266 9 gusting 14 18.9
2016-Feb-11 17:02 269 9 gusting 14 18.9
2016-Feb-11 16:57 265 9 gusting 14 18.9
2016-Feb-11 16:52 276 8 gusting 14 18.9
2016-Feb-11 16:47 306 8 gusting 14 18.9
2016-Feb-11 16:42 263 8 gusting 13 18.9
2016-Feb-11 16:37 254 8 gusting 12 18.9
2016-Feb-11 16:32 269 7 gusting 15 18.9
2016-Feb-11 16:27 250 8 gusting 19 18.9
2016-Feb-11 16:22 312 9 gusting 19 19.4
2016-Feb-11 16:17 280 10 gusting 19 19.4
2016-Feb-11 16:12 221 9 gusting 17 19.4
2016-Feb-11 16:07 273 7 gusting 13 19.4
2016-Feb-11 16:02 284 6 gusting 19 20.0
2016-Feb-11 15:57 304 7 gusting 19 20.0
2016-Feb-11 15:52 246 7 gusting 19 19.4
2016-Feb-11 15:47 245 7 gusting 19 19.4
2016-Feb-11 15:42 259 10 gusting 19 19.4
2016-Feb-11 15:37 208 12 gusting 19 19.4
2016-Feb-11 15:32 264 12 gusting 19 19.4
2016-Feb-11 15:27 265 13 gusting 19 19.4
2016-Feb-11 15:22 278 10 gusting 19 19.4
2016-Feb-11 15:17 298 9 gusting 18 19.4
2016-Feb-11 15:12 274 10 gusting 18 19.4
2016-Feb-11 15:07 277 11 gusting 19 19.4
2016-Feb-11 15:02 261 11 gusting 19 19.4
2016-Feb-11 14:57 283 9 gusting 17 19.4
2016-Feb-11 14:52 229 8 gusting 17 19.4
2016-Feb-11 14:47 238 9 gusting 17 18.9
2016-Feb-11 14:42 258 8 gusting 16 18.9
2016-Feb-11 14:37 263 7 gusting 17 18.9
2016-Feb-11 14:32 284 8 gusting 17 18.9
2016-Feb-11 14:27 247 9 gusting 17 18.9
2016-Feb-11 14:22 259 8 gusting 19 18.9
2016-Feb-11 14:17 255 9 gusting 19 18.9
2016-Feb-11 14:12 260 10 gusting 19 18.9
2016-Feb-11 14:07 261 8 gusting 15 18.3
2016-Feb-11 14:02 259 6 gusting 15 18.9
2016-Feb-11 13:57 204 6 gusting 13 18.3
2016-Feb-11 13:52 227 6 gusting 13 18.3
2016-Feb-11 13:47 224 6 gusting 14 18.3
2016-Feb-11 13:42 248 6 gusting 15 18.9
2016-Feb-11 13:37 249 7 gusting 15 18.3
2016-Feb-11 13:32 237 7 gusting 13 18.3
2016-Feb-11 13:27 232 6 gusting 15 18.3
2016-Feb-11 13:22 252 7 gusting 16 18.3
2016-Feb-11 13:17 247 8 gusting 16 18.3
2016-Feb-11 13:12 244 8 gusting 16 18.3
2016-Feb-11 13:07 223 8 gusting 19 18.3
2016-Feb-11 13:02 253 7 gusting 19 18.9
2016-Feb-11 12:57 248 9 gusting 17 18.9
2016-Feb-11 12:52 241 9 gusting 17 18.3
2016-Feb-11 12:47 213 8 gusting 16 18.3
2016-Feb-11 12:42 240 8 gusting 18 18.3
2016-Feb-11 12:37 245 9 gusting 18 17.8
2016-Feb-11 12:32 273 8 gusting 18 17.8
2016-Feb-11 12:27 226 7 gusting 17 17.8
2016-Feb-11 12:22 229 7 gusting 17 18.3
2016-Feb-11 12:17 272 7 gusting 15 17.8
2016-Feb-11 12:12 261 7 gusting 16 17.8
2016-Feb-11 12:07 253 7 gusting 16 17.8
2016-Feb-11 12:02 263 6 gusting 16 17.8
2016-Feb-11 11:57 296 6 gusting 18 17.8
2016-Feb-11 11:52 275 7 gusting 18 17.8
2016-Feb-11 11:47 253 8 gusting 18 17.2
2016-Feb-11 11:42 232 8 gusting 15 17.8
2016-Feb-11 11:37 281 8 gusting 15 17.8
2016-Feb-11 11:32 290 7 gusting 14 17.8
2016-Feb-11 11:27 263 8 gusting 17 17.2
2016-Feb-11 11:22 252 9 gusting 17 17.2
2016-Feb-11 11:17 258 8 gusting 17 17.2
2016-Feb-11 11:12 265 8 gusting 16 17.2
2016-Feb-11 11:07 244 9 gusting 16 16.7
2016-Feb-11 11:02 279 9 gusting 16 16.7
2016-Feb-11 10:57 259 9 gusting 14 17.2
2016-Feb-11 10:52 286 9 gusting 15 17.2
2016-Feb-11 10:47 261 9 gusting 16 17.2
2016-Feb-11 10:42 275 9 gusting 18 17.2
2016-Feb-11 10:37 266 9 gusting 18 17.2
2016-Feb-11 10:32 279 11 gusting 17 17.2
2016-Feb-11 10:27 271 9 gusting 16 17.8
2016-Feb-11 10:22 267 6 gusting 16 17.8
2016-Feb-11 10:17 246 6 gusting 16 17.8
2016-Feb-11 10:12 265 7 gusting 16 17.2
2016-Feb-11 10:07 244 7 gusting 18 17.2
2016-Feb-11 10:02 267 7 gusting 18 17.2
2016-Feb-11 09:57 266 6 gusting 18 16.7
2016-Feb-11 09:52 265 6 gusting 15 16.7
2016-Feb-11 09:47 238 6 gusting 16 16.7
2016-Feb-11 09:42 223 6 gusting 16 16.7
2016-Feb-11 09:37 273 6 gusting 13 16.1
2016-Feb-11 09:32 258 6 gusting 13 16.1
2016-Feb-11 09:27 240 6 gusting 13 16.1
2016-Feb-11 09:22 287 6 gusting 13 16.1
2016-Feb-11 09:17 281 6 gusting 12 16.1
2016-Feb-11 09:12 249 7 gusting 14 16.1
2016-Feb-11 09:07 271 8 gusting 14 16.1
2016-Feb-11 09:02 273 8 gusting 13 16.7
2016-Feb-11 08:57 251 8 gusting 14 16.7
2016-Feb-11 08:52 247 8 gusting 14 16.7
2016-Feb-11 08:47 273 8 gusting 13 16.1
2016-Feb-11 08:42 288 8 gusting 13 16.1
2016-Feb-11 08:37 257 7 gusting 12 16.1
2016-Feb-11 08:32 243 6 gusting 12 16.1
2016-Feb-11 08:27 267 6 gusting 12 15.6
2016-Feb-11 08:22 223 5 gusting 12 15.6
2016-Feb-11 08:17 265 5 gusting 12 15.6
2016-Feb-11 08:12 227 6 gusting 13 15.6
2016-Feb-11 08:07 259 6 gusting 13 15.6
2016-Feb-11 08:02 187 5 gusting 11 15.6
2016-Feb-11 07:57 244 5 gusting 10 15.6
2016-Feb-11 07:52 250 5 gusting 10 15.6
2016-Feb-11 07:47 246 5 gusting 11 15.6
2016-Feb-11 07:42 254 5 gusting 13 15.6
2016-Feb-11 07:37 246 6 gusting 13 15.6
2016-Feb-11 07:32 226 6 gusting 13 15.6
2016-Feb-11 07:27 232 5 gusting 10 15.6
2016-Feb-11 07:22 242 4 gusting 8 15.6
2016-Feb-11 07:17 221 4 gusting 8 15.6
2016-Feb-11 07:12 255 4 gusting 9 15.6
2016-Feb-11 07:07 246 4 gusting 9 15.6
2016-Feb-11 07:02 229 5 gusting 9 15.6
2016-Feb-11 06:57 236 4 gusting 8 15.6
2016-Feb-11 06:52 250 3 gusting 9 15.6
2016-Feb-11 06:47 260 3 gusting 9 15.6
2016-Feb-11 06:42 244 3 gusting 9 15.6
2016-Feb-11 06:37 277 4 gusting 8 15.6
2016-Feb-11 06:32 259 5 gusting 9 15.6
2016-Feb-11 06:27 247 4 gusting 9 15.6
2016-Feb-11 06:22 239 3 gusting 7 15.6
2016-Feb-11 06:17 251 3 gusting 7 15.6
2016-Feb-11 06:12 257 3 gusting 7 15.6
2016-Feb-11 06:07 243 4 gusting 9 15.6
2016-Feb-11 06:02 262 5 gusting 9 15.6
2016-Feb-11 05:57 267 6 gusting 9 15.6
2016-Feb-11 05:52 254 6 gusting 9 15.6
2016-Feb-11 05:47 250 6 gusting 9 15.6
2016-Feb-11 05:42 267 5 gusting 9 15.6
2016-Feb-11 05:37 250 4 gusting 9 15.6
2016-Feb-11 05:32 248 4 gusting 9 15.6
2016-Feb-11 05:27 240 4 gusting 9 15.6
2016-Feb-11 05:22 263 4 gusting 9 15.6
2016-Feb-11 05:17 235 4 gusting 9 15.6
2016-Feb-11 05:12 248 4 gusting 8 15.6
2016-Feb-11 05:07 239 3 gusting 7 15.6
2016-Feb-11 05:02 245 3 gusting 8 15.6
2016-Feb-11 04:57 256 3 gusting 8 15.6
2016-Feb-11 04:52 245 3 gusting 8 15.6
2016-Feb-11 04:47 237 3 gusting 6 15.6
2016-Feb-11 04:42 243 2 gusting 6 15.6
2016-Feb-11 04:37 232 2 gusting 6 15.6
2016-Feb-11 04:32 254 2 gusting 6 15.6
2016-Feb-11 04:27 243 3 gusting 7 15.6
2016-Feb-11 04:22 242 3 gusting 10 15.6
2016-Feb-11 04:17 253 5 gusting 10 15.6
2016-Feb-11 04:12 246 5 gusting 10 15.6
2016-Feb-11 04:07 273 4 gusting 10 15.6
2016-Feb-11 04:02 259 5 gusting 11 15.6
2016-Feb-11 03:57 244 5 gusting 11 15.6
2016-Feb-11 03:52 259 4 gusting 11 15.6
2016-Feb-11 03:47 251 4 gusting 9 15.6
2016-Feb-11 03:42 275 4 gusting 8 15.6
2016-Feb-11 03:37 245 4 gusting 8 15.6
2016-Feb-11 03:32 238 4 gusting 8 15.6
2016-Feb-11 03:27 281 4 gusting 8 15.6
2016-Feb-11 03:22 239 4 gusting 8 15.6
2016-Feb-11 03:17 249 4 gusting 8 15.6
2016-Feb-11 03:12 232 4 gusting 8 15.6
2016-Feb-11 03:07 274 4 gusting 8 15.6
2016-Feb-11 03:02 238 3 gusting 9 15.6
2016-Feb-11 02:57 279 3 gusting 9 15.6
2016-Feb-11 02:52 274 3 gusting 9 15.6
2016-Feb-11 02:47 231 3 gusting 8 15.6
2016-Feb-11 02:42 256 3 gusting 8 15.6
2016-Feb-11 02:37 224 3 gusting 6 15.6
2016-Feb-11 02:32 221 3 gusting 7 15.6
2016-Feb-11 02:27 275 3 gusting 7 15.6
2016-Feb-11 02:22 221 3 gusting 10 15.6
2016-Feb-11 02:17 240 3 gusting 10 15.6
2016-Feb-11 02:12 260 4 gusting 9 15.6
2016-Feb-11 02:07 219 4 gusting 10 15.6
2016-Feb-11 02:02 292 5 gusting 10 15.6
2016-Feb-11 01:57 276 4 gusting 10 15.6
2016-Feb-11 01:52 237 4 gusting 9 15.6
2016-Feb-11 01:47 254 4 gusting 10 15.6
2016-Feb-11 01:42 242 5 gusting 10 15.6
2016-Feb-11 01:37 242 5 gusting 10 15.6
2016-Feb-11 01:32 257 4 gusting 11 15.6
2016-Feb-11 01:27 204 5 gusting 11 15.6
2016-Feb-11 01:22 275 5 gusting 11 15.6
2016-Feb-11 01:17 232 5 gusting 13 15.6
2016-Feb-11 01:12 272 6 gusting 13 15.6
2016-Feb-11 01:07 225 6 gusting 13 15.6
2016-Feb-11 01:02 229 6 gusting 12 15.6
2016-Feb-11 00:57 227 6 gusting 13 15.6
2016-Feb-11 00:52 238 6 gusting 13 15.6
2016-Feb-11 00:47 234 6 gusting 12 15.6
2016-Feb-11 00:42 223 6 gusting 12 15.6
2016-Feb-11 00:37 207 6 gusting 12 15.6
2016-Feb-11 00:32 211 6 gusting 10 15.6
2016-Feb-11 00:27 215 6 gusting 12 15.6
2016-Feb-11 00:22 219 6 gusting 12 16.1
2016-Feb-11 00:17 221 6 gusting 11 16.1
2016-Feb-11 00:12 223 6 gusting 13 16.1
2016-Feb-11 00:07 222 6 gusting 13 16.1
2016-Feb-11 00:02 205 6 gusting 12 16.1
2016-Feb-10 23:57 265 6 gusting 13 16.1
2016-Feb-10 23:52 212 6 gusting 13 16.1
2016-Feb-10 23:47 253 6 gusting 13 16.1
2016-Feb-10 23:42 226 6 gusting 13 16.1
2016-Feb-10 23:37 243 6 gusting 13 16.1
2016-Feb-10 23:32 221 6 gusting 13 16.1
2016-Feb-10 23:27 252 7 gusting 13 16.1
2016-Feb-10 23:22 214 7 gusting 13 16.1
2016-Feb-10 23:17 233 6 gusting 13 15.6
2016-Feb-10 23:12 231 6 gusting 13 15.6
2016-Feb-10 23:07 252 6 gusting 13 16.1
2016-Feb-10 23:02 202 6 gusting 11 16.1
2016-Feb-10 22:57 230 6 gusting 11 16.1
2016-Feb-10 22:52 189 5 gusting 12 16.1
2016-Feb-10 22:47 241 5 gusting 13 16.1
2016-Feb-10 22:42 245 6 gusting 13 16.1
2016-Feb-10 22:37 219 6 gusting 13 16.1
2016-Feb-10 22:32 214 6 gusting 13 16.1
2016-Feb-10 22:27 222 6 gusting 13 16.1
2016-Feb-10 22:22 243 5 gusting 13 16.1
2016-Feb-10 22:17 273 6 gusting 12 16.1
2016-Feb-10 22:12 235 6 gusting 12 16.1
2016-Feb-10 22:07 214 6 gusting 13 16.1
2016-Feb-10 22:02 214 6 gusting 13 16.1
2016-Feb-10 21:57 246 6 gusting 13 16.1
2016-Feb-10 21:52 202 6 gusting 11 16.1
2016-Feb-10 21:47 231 6 gusting 11 16.1
2016-Feb-10 21:42 234 6 gusting 11 16.1
2016-Feb-10 21:37 242 6 gusting 11 16.1
2016-Feb-10 21:32 209 6 gusting 11 16.1
2016-Feb-10 21:27 240 6 gusting 16 16.7
2016-Feb-10 21:22 227 6 gusting 16 16.7
2016-Feb-10 21:17 258 6 gusting 16 16.7
2016-Feb-10 21:12 251 6 gusting 14 16.7
2016-Feb-10 21:07 214 6 gusting 14 16.7
2016-Feb-10 21:02 246 6 gusting 13 16.1
2016-Feb-10 20:57 241 6 gusting 13 16.1
2016-Feb-10 20:52 244 6 gusting 12 16.7
2016-Feb-10 20:47 252 6 gusting 10 16.7
2016-Feb-10 20:42 251 6 gusting 10 16.7
2016-Feb-10 20:37 207 6 gusting 12 16.7
2016-Feb-10 20:32 202 5 gusting 12 16.7
2016-Feb-10 20:27 247 6 gusting 12 16.1
2016-Feb-10 20:22 240 5 gusting 11 16.1
2016-Feb-10 20:17 240 5 gusting 11 16.1
2016-Feb-10 20:12 229 5 gusting 10 16.1
2016-Feb-10 20:07 257 6 gusting 9 16.1
2016-Feb-10 20:02 218 5 gusting 13 16.1
2016-Feb-10 19:57 273 5 gusting 13 16.1
2016-Feb-10 19:52 190 6 gusting 13 16.1
2016-Feb-10 19:47 254 5 gusting 11 16.1
2016-Feb-10 19:42 232 5 gusting 11 16.1
2016-Feb-10 19:37 249 5 gusting 10 16.1
2016-Feb-10 19:32 288 5 gusting 11 16.1
2016-Feb-10 19:27 261 5 gusting 12 16.1
2016-Feb-10 19:22 219 5 gusting 13 16.1
2016-Feb-10 19:17 227 5 gusting 13 16.1
2016-Feb-10 19:12 251 6 gusting 13 16.1
2016-Feb-10 19:07 232 6 gusting 13 16.1
2016-Feb-10 19:02 234 5 gusting 11 16.1
2016-Feb-10 18:57 237 5 gusting 13 16.1
2016-Feb-10 18:52 242 6 gusting 13 16.1
2016-Feb-10 18:47 216 6 gusting 13 16.1
2016-Feb-10 18:42 258 6 gusting 13 16.1
2016-Feb-10 18:37 229 6 gusting 12 16.1
2016-Feb-10 18:32 265 6 gusting 13 16.1
2016-Feb-10 18:27 240 6 gusting 13 16.1
2016-Feb-10 18:22 271 6 gusting 12 16.1
2016-Feb-10 18:17 254 6 gusting 11 16.1
2016-Feb-10 18:12 209 6 gusting 11 16.1
2016-Feb-10 18:07 236 6 gusting 11 16.7
2016-Feb-10 18:02 238 5 gusting 11 16.7
2016-Feb-10 17:57 240 5 gusting 10 16.1
2016-Feb-10 17:52 247 5 gusting 10 16.1
2016-Feb-10 17:47 229 5 gusting 9 16.1
2016-Feb-10 17:42 250 5 gusting 10 16.1
2016-Feb-10 17:37 240 5 gusting 10 16.1
2016-Feb-10 17:32 233 5 gusting 10 16.1
2016-Feb-10 17:27 220 5 gusting 11 16.1
2016-Feb-10 17:22 231 5 gusting 11 16.1
2016-Feb-10 17:17 242 5 gusting 11 16.7
2016-Feb-10 17:12 254 5 gusting 11 16.7
2016-Feb-10 17:07 211 4 gusting 12 16.7
2016-Feb-10 17:02 236 5 gusting 12 16.7
2016-Feb-10 16:57 229 5 gusting 12 16.7
2016-Feb-10 16:52 244 4 gusting 11 16.7
2016-Feb-10 16:47 244 4 gusting 11 16.7
2016-Feb-10 16:42 265 5 gusting 13 16.7
2016-Feb-10 16:37 226 5 gusting 15 16.7
2016-Feb-10 16:32 256 6 gusting 15 16.7
2016-Feb-10 16:27 209 7 gusting 15 16.7
2016-Feb-10 16:22 227 8 gusting 15 16.7
2016-Feb-10 16:17 205 7 gusting 12 16.7
2016-Feb-10 16:12 227 6 gusting 12 16.7
2016-Feb-10 16:07 187 6 gusting 11 16.7
2016-Feb-10 16:02 250 6 gusting 11 16.7
2016-Feb-10 15:57 255 5 gusting 8 16.7
2016-Feb-10 15:52 236 4 gusting 8 16.7
2016-Feb-10 15:47 227 4 gusting 7 16.7
2016-Feb-10 15:42 279 3 gusting 7 16.7
2016-Feb-10 15:37 241 2 gusting 8 16.7
2016-Feb-10 15:32 269 3 gusting 10 16.7
2016-Feb-10 15:27 261 4 gusting 10 16.7
2016-Feb-10 15:22 232 5 gusting 10 16.7
2016-Feb-10 15:17 259 5 gusting 10 17.2
2016-Feb-10 15:12 247 6 gusting 10 17.2
2016-Feb-10 15:07 220 6 gusting 10 17.8
2016-Feb-10 15:02 231 5 gusting 10 17.8
2016-Feb-10 14:57 221 4 gusting 10 17.8
2016-Feb-10 14:52 260 5 gusting 12 17.8
2016-Feb-10 14:47 232 6 gusting 12 17.8
2016-Feb-10 14:42 228 6 gusting 12 17.8
2016-Feb-10 14:37 257 4 gusting 9 17.8
2016-Feb-10 14:32 211 4 gusting 11 17.8
2016-Feb-10 14:27 277 5 gusting 13 18.3
2016-Feb-10 14:22 225 6 gusting 13 18.3
2016-Feb-10 14:17 232 6 gusting 13 18.3
2016-Feb-10 14:12 273 5 gusting 12 18.3
2016-Feb-10 14:07 244 6 gusting 12 18.3
2016-Feb-10 14:02 221 6 gusting 12 18.3
2016-Feb-10 13:57 198 6 gusting 14 18.3
2016-Feb-10 13:52 217 6 gusting 14 18.3
2016-Feb-10 13:47 269 6 gusting 12 18.3
2016-Feb-10 13:42 224 6 gusting 13 18.3
2016-Feb-10 13:37 271 6 gusting 13 18.3
2016-Feb-10 13:32 259 6 gusting 13 18.3
2016-Feb-10 13:27 227 5 gusting 12 18.3
2016-Feb-10 13:22 211 4 gusting 11 18.3
2016-Feb-10 13:17 235 5 gusting 11 18.3
2016-Feb-10 13:12 293 6 gusting 13 17.8
2016-Feb-10 13:07 251 5 gusting 13 17.8
2016-Feb-10 13:02 260 6 gusting 13 17.8
2016-Feb-10 12:57 252 5 gusting 12 17.8
2016-Feb-10 12:52 258 5 gusting 12 17.8
2016-Feb-10 12:47 270 5 gusting 13 17.8
2016-Feb-10 12:42 237 6 gusting 13 17.8
2016-Feb-10 12:37 261 6 gusting 16 17.8
2016-Feb-10 12:32 274 7 gusting 16 17.8
2016-Feb-10 12:27 267 7 gusting 16 17.8
2016-Feb-10 12:22 271 7 gusting 12 18.3
2016-Feb-10 12:17 242 6 gusting 13 18.3
2016-Feb-10 12:12 220 6 gusting 15 18.3
2016-Feb-10 12:07 269 6 gusting 15 17.8
2016-Feb-10 12:02 292 7 gusting 17 17.8
2016-Feb-10 11:57 257 7 gusting 17 17.8
2016-Feb-10 11:52 283 7 gusting 13 17.8
2016-Feb-10 11:47 257 6 gusting 13 17.8
2016-Feb-10 11:42 261 7 gusting 14 17.8
2016-Feb-10 11:37 273 8 gusting 14 17.8
2016-Feb-10 11:32 261 7 gusting 16 17.8
2016-Feb-10 11:27 278 6 gusting 16 17.8
2016-Feb-10 11:22 236 6 gusting 16 17.8
2016-Feb-10 11:17 288 6 gusting 13 17.8
2016-Feb-10 11:12 252 6 gusting 14 17.8
2016-Feb-10 11:07 242 7 gusting 14 17.2
2016-Feb-10 11:02 264 7 gusting 14 17.2
2016-Feb-10 10:57 294 7 gusting 15 17.2
2016-Feb-10 10:52 246 7 gusting 18 17.2
2016-Feb-10 10:47 273 7 gusting 18 17.2
2016-Feb-10 10:42 269 7 gusting 18 16.7
2016-Feb-10 10:37 284 6 gusting 13 16.7
2016-Feb-10 10:32 202 6 gusting 13 16.7
2016-Feb-10 10:27 254 6 gusting 13 16.7
2016-Feb-10 10:22 261 6 gusting 13 16.7
2016-Feb-10 10:17 261 6 gusting 13 16.7
2016-Feb-10 10:12 219 6 gusting 13 16.7
2016-Feb-10 10:07 262 6 gusting 13 16.7
2016-Feb-10 10:02 256 6 gusting 13 16.1
2016-Feb-10 09:57 211 6 gusting 13 16.1
2016-Feb-10 09:52 289 7 gusting 13 16.1
2016-Feb-10 09:47 258 6 gusting 13 16.1
2016-Feb-10 09:42 294 6 gusting 14 16.1
2016-Feb-10 09:37 263 7 gusting 14 15.6
2016-Feb-10 09:32 248 7 gusting 14 15.6
2016-Feb-10 09:27 259 6 gusting 13 15.6
2016-Feb-10 09:22 223 6 gusting 13 15.6
2016-Feb-10 09:17 252 6 gusting 13 15.6
2016-Feb-10 09:12 250 6 gusting 13 15.6
2016-Feb-10 09:07 269 6 gusting 13 15.0
2016-Feb-10 09:02 244 6 gusting 13 15.0
2016-Feb-10 08:57 248 5 gusting 13 15.0
2016-Feb-10 08:52 261 5 gusting 10 15.0
2016-Feb-10 08:47 215 5 gusting 10 15.0
2016-Feb-10 08:42 226 5 gusting 10 14.4
2016-Feb-10 08:37 233 5 gusting 10 14.4
2016-Feb-10 08:32 215 5 gusting 11 14.4
2016-Feb-10 08:27 217 6 gusting 12 14.4
2016-Feb-10 08:22 204 6 gusting 12 14.4
2016-Feb-10 08:17 225 6 gusting 11 14.4
2016-Feb-10 08:12 220 5 gusting 9 14.4
2016-Feb-10 08:07 217 3 gusting 7 14.4
2016-Feb-10 08:02 227 2 gusting 6 14.4
2016-Feb-10 07:57 226 2 gusting 6 14.4
2016-Feb-10 07:52 232 2 gusting 8 14.4
2016-Feb-10 07:47 273 3 gusting 8 14.4
2016-Feb-10 07:42 269 2 gusting 8 14.4
2016-Feb-10 07:37 257 2 gusting 8 14.4
2016-Feb-10 07:32 225 3 gusting 8 14.4
2016-Feb-10 07:27 238 3 gusting 6 14.4
2016-Feb-10 07:22 277 2 gusting 6 14.4
2016-Feb-10 07:17 239 2 gusting 7 14.4
2016-Feb-10 07:12 269 3 gusting 7 14.4
2016-Feb-10 07:07 244 3 gusting 7 14.4
2016-Feb-10 07:02 248 2 gusting 7 14.4
2016-Feb-10 06:57 247 2 gusting 8 14.4
2016-Feb-10 06:52 254 3 gusting 8 14.4
2016-Feb-10 06:47 248 3 gusting 7 14.4
2016-Feb-10 06:42 251 3 gusting 8 14.4
2016-Feb-10 06:37 254 3 gusting 8 14.4
2016-Feb-10 06:32 230 4 gusting 8 14.4
2016-Feb-10 06:27 250 3 gusting 8 14.4
2016-Feb-10 06:22 251 3 gusting 8 14.4
2016-Feb-10 06:17 243 3 gusting 11 14.4
2016-Feb-10 06:12 255 4 gusting 11 14.4
2016-Feb-10 06:07 257 5 gusting 11 14.4
2016-Feb-10 06:02 257 6 gusting 14 14.4
2016-Feb-10 05:57 237 6 gusting 14 14.4
2016-Feb-10 05:52 229 6 gusting 14 14.4
2016-Feb-10 05:47 257 6 gusting 12 14.4
2016-Feb-10 05:42 249 6 gusting 12 14.4
2016-Feb-10 05:37 232 6 gusting 13 14.4
2016-Feb-10 05:32 263 6 gusting 13 14.4
2016-Feb-10 05:27 244 6 gusting 13 14.4
2016-Feb-10 05:22 277 6 gusting 13 14.4
2016-Feb-10 05:17 289 6 gusting 13 13.9
2016-Feb-10 05:12 213 6 gusting 12 13.9
2016-Feb-10 05:07 237 6 gusting 12 13.9
2016-Feb-10 05:02 245 6 gusting 13 13.9
2016-Feb-10 04:57 227 6 gusting 13 14.4
2016-Feb-10 04:52 232 6 gusting 13 14.4
2016-Feb-10 04:47 238 6 gusting 10 14.4
2016-Feb-10 04:42 216 6 gusting 10 14.4
2016-Feb-10 04:37 247 6 gusting 12 14.4
2016-Feb-10 04:32 237 7 gusting 12 14.4
2016-Feb-10 04:27 223 6 gusting 12 14.4
2016-Feb-10 04:22 196 6 gusting 10 14.4
2016-Feb-10 04:17 254 6 gusting 11 14.4
2016-Feb-10 04:12 219 6 gusting 11 14.4
2016-Feb-10 04:07 188 6 gusting 11 14.4
2016-Feb-10 04:02 223 6 gusting 9 14.4
2016-Feb-10 03:57 225 5 gusting 13 14.4
2016-Feb-10 03:52 229 5 gusting 13 14.4
2016-Feb-10 03:47 247 5 gusting 13 14.4
2016-Feb-10 03:42 223 5 gusting 10 14.4
2016-Feb-10 03:37 231 5 gusting 9 14.4
2016-Feb-10 03:32 244 4 gusting 8 14.4
2016-Feb-10 03:27 217 3 gusting 10 14.4
2016-Feb-10 03:22 232 4 gusting 10 14.4
2016-Feb-10 03:17 240 4 gusting 9 14.4
2016-Feb-10 03:12 230 4 gusting 9 14.4
2016-Feb-10 03:07 284 4 gusting 9 14.4
2016-Feb-10 03:02 250 4 gusting 9 14.4